Retour au catalogue

FENGYUN 1C DEB

ActifSSO
NORAD 29750·DEBRIS·🇨🇳 China

Lancé May 10, 1999 depuis Taiyuan Satellite Launch Center

Loading…

Prochains Passages (prochaines 24 heures)

TLE

FraisSource: Space-Track

Époque: Sep 14, 2026, 21:04 UTC

1 29750U 99025AQ  26257.87839241  .00000235  00000-0  15718-3 0  9997
2 29750  98.7295 284.0511 0035015 238.1845 295.3018 14.09859211  9525

Suivez FENGYUN 1C DEB en temps réel avec AllMySat

Download on the App Store